When you browse on this site, cookies collect data to enhance your experience and personalize the content and advertising you see.
Visit our Privacy Policy to learn more. By continuing to use the site, you agree to this use of cookies and data.
EN

Hourly Weather Urumczi

Today, 13 July, Monday

Time Temperature Precipitation Wind Pressure Humidity
00:00 +22°C° 0 mm 3 mps 683 mmHg 48%
01:00 +21°C° 0.1 mm 4 mps 683 mmHg 54%
02:00 +20°C° 0.1 mm 5 mps 683 mmHg 59%
03:00 +19°C° 0.1 mm 6 mps 683 mmHg 64%
04:00 +19°C° 0.1 mm 5 mps 683 mmHg 62%
05:00 +19°C° 0.1 mm 4 mps 683 mmHg 60%
06:00 +19°C° 0.1 mm 3 mps 683 mmHg 57%
07:00 +20°C° 0 mm 3 mps 683 mmHg 50%
08:00 +22°C° 0 mm 3 mps 684 mmHg 42%
09:00 +24°C° 0 mm 3 mps 684 mmHg 35%
10:00 +25°C° 0 mm 3 mps 684 mmHg 33%
11:00 +26°C° 0 mm 4 mps 684 mmHg 31%
12:00 +27°C° 0 mm 4 mps 684 mmHg 29%
13:00 +28°C° 0 mm 5 mps 683 mmHg 28%
14:00 +28°C° 0 mm 5 mps 683 mmHg 26%
15:00 +29°C° 0 mm 5 mps 683 mmHg 25%
16:00 +29°C° 0 mm 5 mps 683 mmHg 25%
17:00 +28°C° 0 mm 5 mps 683 mmHg 25%
18:00 +28°C° 0 mm 5 mps 682 mmHg 25%
19:00 +27°C° 0 mm 4 mps 683 mmHg 27%
20:00 +26°C° 0 mm 3 mps 683 mmHg 28%
21:00 +25°C° 0 mm 3 mps 683 mmHg 30%
22:00 +25°C° 0 mm 2 mps 683 mmHg 31%
23:00 +24°C° 0 mm 2 mps 683 mmHg 31%

Tomorrow, 14 July, Tuesday

Time Temperature Precipitation Wind Pressure Humidity
00:00 +24°C° 0 mm 1 mps 683 mmHg 32%
01:00 +24°C° 0 mm 2 mps 682 mmHg 33%
02:00 +23°C° 0 mm 2 mps 682 mmHg 34%
03:00 +23°C° 0 mm 2 mps 682 mmHg 35%
04:00 +23°C° 0 mm 2 mps 682 mmHg 35%
05:00 +23°C° 0 mm 1 mps 682 mmHg 36%
06:00 +24°C° 0 mm 1 mps 683 mmHg 37%
07:00 +25°C° 0 mm 2 mps 683 mmHg 33%
08:00 +26°C° 0 mm 2 mps 683 mmHg 29%
09:00 +28°C° 0 mm 2 mps 683 mmHg 25%
10:00 +29°C° 0 mm 3 mps 683 mmHg 23%
11:00 +30°C° 0 mm 3 mps 683 mmHg 22%
12:00 +31°C° 0 mm 3 mps 684 mmHg 21%
13:00 +31°C° 0 mm 3 mps 683 mmHg 20%
14:00 +33°C° 0 mm 4 mps 683 mmHg 19%
15:00 +33°C° 0 mm 4 mps 683 mmHg 19%
16:00 +33°C° 0 mm 4 mps 683 mmHg 19%
17:00 +33°C° 0 mm 5 mps 683 mmHg 20%
18:00 +33°C° 0 mm 6 mps 683 mmHg 20%
19:00 +30°C° 0 mm 5 mps 683 mmHg 22%
20:00 +29°C° 0 mm 4 mps 683 mmHg 24%
21:00 +28°C° 0 mm 4 mps 683 mmHg 26%
22:00 +27°C° 0 mm 3 mps 683 mmHg 27%
23:00 +26°C° 0 mm 3 mps 683 mmHg 28%

Day after tomorrow, 15 July, Wednesday

Time Temperature Precipitation Wind Pressure Humidity
00:00 +26°C° 0 mm 2 mps 683 mmHg 29%
01:00 +25°C° 0 mm 2 mps 682 mmHg 29%
02:00 +25°C° 0 mm 2 mps 682 mmHg 30%
03:00 +24°C° 0 mm 2 mps 682 mmHg 30%
04:00 +25°C° 0 mm 2 mps 682 mmHg 30%
05:00 +25°C° 0 mm 2 mps 682 mmHg 31%
06:00 +25°C° 0 mm 2 mps 683 mmHg 31%
07:00 +26°C° 0 mm 2 mps 683 mmHg 28%
08:00 +28°C° 0 mm 2 mps 683 mmHg 25%
09:00 +29°C° 0 mm 3 mps 683 mmHg 22%
10:00 +32°C° 0 mm 4 mps 683 mmHg 21%
11:00 +33°C° 0 mm 5 mps 683 mmHg 20%
12:00 +34°C° 0 mm 6 mps 683 mmHg 18%
13:00 +34°C° 0 mm 6 mps 683 mmHg 18%
14:00 +35°C° 0 mm 6 mps 682 mmHg 18%
15:00 +35°C° 0 mm 6 mps 682 mmHg 17%
16:00 +34°C° 0 mm 6 mps 682 mmHg 18%
17:00 +34°C° 0 mm 6 mps 682 mmHg 19%
18:00 +33°C° 0 mm 5 mps 682 mmHg 20%
19:00 +30°C° 0.1 mm 5 mps 682 mmHg 26%
20:00 +28°C° 0.1 mm 5 mps 682 mmHg 33%
21:00 +26°C° 0.1 mm 5 mps 682 mmHg 39%
22:00 +27°C° 0 mm 4 mps 682 mmHg 38%
23:00 +27°C° 0 mm 3 mps 682 mmHg 38%

16 July, Thursday

Time Temperature Precipitation Wind Pressure Humidity
00:00 +27°C° 0 mm 2 mps 682 mmHg 37%
01:00 +26°C° 0 mm 2 mps 681 mmHg 37%
02:00 +26°C° 0 mm 1 mps 681 mmHg 37%
03:00 +26°C° 0 mm 1 mps 681 mmHg 37%
04:00 +26°C° 0 mm 1 mps 681 mmHg 37%
05:00 +26°C° 0 mm 1 mps 681 mmHg 38%
06:00 +26°C° 0 mm 1 mps 681 mmHg 38%
07:00 +27°C° 0 mm 2 mps 682 mmHg 34%
08:00 +29°C° 0 mm 2 mps 682 mmHg 30%
09:00 +30°C° 0 mm 3 mps 682 mmHg 26%
10:00 +31°C° 0 mm 3 mps 682 mmHg 24%
11:00 +33°C° 0 mm 4 mps 682 mmHg 22%
12:00 +34°C° 0 mm 4 mps 682 mmHg 20%
13:00 +35°C° 0 mm 4 mps 682 mmHg 19%
14:00 +36°C° 0 mm 5 mps 682 mmHg 18%
15:00 +36°C° 0 mm 5 mps 681 mmHg 17%
16:00 +36°C° 0 mm 5 mps 681 mmHg 17%
17:00 +35°C° 0 mm 5 mps 681 mmHg 18%
18:00 +35°C° 0 mm 5 mps 681 mmHg 18%
19:00 +34°C° 0 mm 4 mps 681 mmHg 20%
20:00 +33°C° 0 mm 3 mps 681 mmHg 21%
21:00 +30°C° 0 mm 3 mps 682 mmHg 23%
22:00 +30°C° 0 mm 2 mps 681 mmHg 24%
23:00 +29°C° 0 mm 2 mps 681 mmHg 25%

17 July, Friday

Time Temperature Precipitation Wind Pressure Humidity
00:00 +28°C° 0 mm 2 mps 681 mmHg 26%
01:00 +28°C° 0 mm 2 mps 681 mmHg 26%
02:00 +27°C° 0 mm 2 mps 681 mmHg 27%
03:00 +27°C° 0 mm 2 mps 681 mmHg 28%
04:00 +27°C° 0 mm 2 mps 681 mmHg 28%
05:00 +27°C° 0 mm 2 mps 681 mmHg 29%
06:00 +27°C° 0 mm 2 mps 681 mmHg 30%
07:00 +29°C° 0 mm 2 mps 682 mmHg 26%
08:00 +30°C° 0 mm 2 mps 682 mmHg 23%
09:00 +32°C° 0 mm 2 mps 682 mmHg 20%
10:00 +34°C° 0 mm 2 mps 682 mmHg 19%
11:00 +35°C° 0 mm 3 mps 682 mmHg 18%
12:00 +36°C° 0 mm 3 mps 682 mmHg 17%
13:00 +36°C° 0 mm 4 mps 682 mmHg 16%
14:00 +37°C° 0 mm 5 mps 682 mmHg 15%
15:00 +37°C° 0 mm 5 mps 682 mmHg 15%
16:00 +37°C° 0 mm 5 mps 682 mmHg 15%
17:00 +36°C° 0 mm 6 mps 682 mmHg 16%
18:00 +36°C° 0 mm 6 mps 681 mmHg 16%
19:00 +35°C° 0 mm 5 mps 681 mmHg 18%
20:00 +33°C° 0 mm 4 mps 681 mmHg 20%
21:00 +31°C° 0 mm 2 mps 682 mmHg 21%
22:00 +30°C° 0 mm 2 mps 681 mmHg 22%
23:00 +29°C° 0 mm 2 mps 681 mmHg 23%

18 July, Saturday

Time Temperature Precipitation Wind Pressure Humidity
00:00 +29°C° 0 mm 1 mps 681 mmHg 24%
01:00 +29°C° 0 mm 2 mps 681 mmHg 24%
02:00 +28°C° 0 mm 2 mps 681 mmHg 25%
03:00 +28°C° 0 mm 2 mps 681 mmHg 25%
04:00 +28°C° 0 mm 2 mps 681 mmHg 26%
05:00 +28°C° 0 mm 2 mps 681 mmHg 27%
06:00 +28°C° 0 mm 1 mps 682 mmHg 28%
07:00 +30°C° 0 mm 1 mps 682 mmHg 24%
08:00 +32°C° 0 mm 1 mps 682 mmHg 21%
09:00 +33°C° 0 mm 1 mps 682 mmHg 18%
10:00 +34°C° 0 mm 1 mps 683 mmHg 17%
11:00 +36°C° 0 mm 2 mps 683 mmHg 16%
12:00 +37°C° 0 mm 2 mps 683 mmHg 14%
13:00 +38°C° 0 mm 2 mps 682 mmHg 14%
14:00 +38°C° 0 mm 3 mps 682 mmHg 13%
15:00 +38°C° 0 mm 3 mps 682 mmHg 13%
16:00 +37°C° 0 mm 4 mps 682 mmHg 16%
17:00 +36°C° 0 mm 5 mps 682 mmHg 18%
18:00 +35°C° 0 mm 6 mps 682 mmHg 21%
19:00 +34°C° 0 mm 6 mps 682 mmHg 23%
20:00 +33°C° 0 mm 6 mps 682 mmHg 25%
21:00 +32°C° 0 mm 7 mps 682 mmHg 27%
22:00 +30°C° 0 mm 7 mps 682 mmHg 28%
23:00 +30°C° 0 mm 7 mps 682 mmHg 29%
Show more